User: anonymous   Login
Location: Unspecified
(0.0000°N, 0.0000°E)
Time: 16:39:11
(UTC+00:00)
Language:

OBJECT PE - Orbit

View from above orbital plane
View from above orbital plane
View from above satellite
View from above satellite

Ground track
Ground track

The orbit data is extracted from the following two-line orbital elements,

1 43590U 98067PE  18344.64752337  .00012632  00000-0  17730-3 0  9993
2 43590  51.6373 217.5817 0006759 155.6686 204.4626 15.57107926 19022
Epoch (UTC): 10 December 2018 15:32:26
Eccentricity: 0.0006759
inclination: 51.6373°
perigee height: 391 km
apogee height: 400 km
right ascension of ascending node: 217.5817°
argument of perigee: 155.6686°
revolutions per day: 15.57107926
mean anomaly at epoch: 204.4626°
orbit number at epoch: 1902

The dashed part of the orbit path shows where the satellite is in the earth's shadow,  

DLR